This is the latest recevied weather packets stored in our database for station/object KHOP. If no packets are shown the sender has not sent any weather packets the latest 1 day(s).
| Time | Temp. | Humidity | Pressure | Rain* | Wind** | Luminosity | Snow |
|---|---|---|---|---|---|---|---|
| 1836274580 | 20° C | 88% | 1017.3 hPa | - | 0 m/s | - | - |
| 1836274431 | 20° C | 88% | 1017.3 hPa | - | 0 m/s | - | - |
| 1836273979 | 20° C | 88% | 1017.3 hPa | - | 0 m/s | - | - |
| 1778047415 | 11.67° C | 93% | 1007.5 hPa | - | 4.47 m/s, 340° | - | - |
| 1778046812 | 13.89° C | 93% | 1007.5 hPa | - | 5.81 m/s, 310° | - | - |
| 1778046216 | 13.89° C | 93% | 1007.5 hPa | - | 5.81 m/s, 310° | - | - |
| 1778045609 | 16.67° C | 88% | 1007.1 hPa | - | 4.92 m/s, 310° | - | - |
| 1778045011 | 17.78° C | 93% | 1006.8 hPa | - | 4.92 m/s, 310° | - | - |
| 1778044410 | 18.89° C | 88% | 1006.4 hPa | - | 7.6 m/s, 300° | - | - |
| 1778043813 | 18.89° C | 88% | 1006.4 hPa | - | 7.6 m/s, 300° | - | - |
| 1778043210 | 18.89° C | 82% | 1005.4 hPa | - | 5.81 m/s, 190° | - | - |
| 1778042612 | 18.89° C | 82% | 1005.8 hPa | - | 5.81 m/s, 190° | - | - |
| 1778042011 | 18.89° C | 82% | 1005.8 hPa | - | 5.81 m/s, 190° | - | - |
| 1778041412 | 18.89° C | 82% | 1005.8 hPa | - | 5.81 m/s, 190° | - | - |
| 1778040813 | 18.89° C | 82% | 1005.8 hPa | - | 5.81 m/s, 190° | - | - |
| 1778040331 | 18.89° C | 82% | 1005.8 hPa | - | 5.81 m/s, 190° | - | - |
| 1778039609 | 17.78° C | 88% | 1005.8 hPa | - | 5.36 m/s, 190° | - | - |
| 1778039016 | 17.78° C | 88% | 1005.8 hPa | - | 5.36 m/s, 190° | - | - |
| 1778038415 | 17.78° C | 88% | 1006.1 hPa | - | 5.36 m/s, 190° | - | - |
| 1778037814 | 17.78° C | 88% | 1006.1 hPa | - | 4.92 m/s, 180° | - | - |
| 1778037210 | 17.78° C | 88% | 1006.1 hPa | - | 4.92 m/s, 180° | - | - |
| 1778036609 | 17.78° C | 88% | 1006.4 hPa | - | 4.47 m/s, 180° | - | - |
| 1778036010 | 16.67° C | 88% | 1006.1 hPa | - | 2.68 m/s, 180° | - | - |
| 1778035410 | 16.67° C | 88% | 1006.1 hPa | - | 2.68 m/s, 180° | - | - |
| 1778034809 | 17.78° C | 88% | 1006.1 hPa | - | 3.58 m/s, 170° | - | - |
* Rain since midnight (hover to see other rain measurements)
** Current wind speed in m/s (hover to see current wind gust speed)